509  
ASUS44 KMAF 222010  
RWRMAF  
MIDLAND AREA WEATHER ROUNDUP  
NATIONAL WEATHER SERVICE MIDLAND TX  
200 PM CST WED NOV 22 2017  
   
..IN SOUTHWEST TEXAS AND SOUTHEAST NEW MEXICO
 
 
 
CITY SKY/WX TMP DP RH WIND PRES REMARKS
 
ALPINE SUNNY 62 23 22 CALM 30.38F  
ANDREWS FAIR 58 26 29 SW7 30.32F  
ARTESIA SUNNY 59 28 31 SE15 30.29F  
BIG SPRING SUNNY 54 22 28 CALM 30.37F  
CARLSBAD SUNNY 60 30 32 S17G23 30.28F  
DRYDEN N/A 62 30 29 CALM 30.31F  
FORT STOCKTON CLOUDY 56 28 34 E6 30.34F  
GUAD PASS SUNNY 59 26 28 SW22 30.34F  
HOBBS SUNNY 57 27 30 S12 30.31F  
LAMESA FAIR 55 25 30 S5 30.33F  
MARFA SUNNY 61 23 23 SE8 30.34F  
MIDLAND AIRPK SUNNY 58 25 28 CALM 30.33F  
MIDLAND INTL SUNNY 57 21 24 VRB5 30.33F  
ODESSA SUNNY 57 22 25 S7 30.33F  
PECOS SUNNY 58 26 28 S3 30.33F  
PRESIDIO FAIR 66 25 21 NW3 30.32F  
SEMINOLE CLOUDY 57 27 31 SW7 30.33F  
SNYDER SUNNY 54 23 30 NW3 30.33F  
WINK CLOUDY 57 25 29 SW7 30.32F  

   
..OTHER STATIONS IN TEXAS
 
 
 
CITY SKY/WX TMP DP RH WIND PRES REMARKS
 
ABILENE SUNNY 53 17 24 NW14 30.34F  
AMARILLO CLOUDY 59 27 29 SW17G23 30.26F  
AUSTIN MOSUNNY 65 35 33 N13G23 30.24F  
BROWNSVILLE PTSUNNY 70 53 54 N16G26 30.18F  
CORPUS CHRISTI MOSUNNY 72 48 42 N10 30.20F  
DALLAS FTW PTSUNNY 56 19 23 N14 30.30F  
DEL RIO SUNNY 66 32 28 N9G20 30.29F  
EL PASO MOSUNNY 65 25 22 E3 30.31F  
HOUSTON INT MOSUNNY 69 48 47 N10G23 30.16F  
LUBBOCK CLOUDY 55 25 31 SW9 30.30F  
SAN ANGELO SUNNY 59 18 20 NE6 30.32F  
SAN ANTONIO MOSUNNY 67 33 28 N9G23 30.25F  
WACO SUNNY 58 22 24 NW14 30.29F  
WICHITA FALLS MOSUNNY 45 18 34 S9 30.29F  

   
..OTHER LOCATIONS IN NEW MEXICO
 
 
 
CITY SKY/WX TMP DP RH WIND PRES REMARKS
 
ALAMOGORDO SUNNY 63 25 23 N6 30.33F  
ALBUQUERQUE PTSUNNY 56 28 34 CALM 30.36F  
CANNON AFB CLOUDY 60 27 29 SW14G22 30.28F  
CLOVIS CLOUDY 60 29 30 W14G20 30.28F  
HOLLOMAN AFB SUNNY 67 28 23 CALM 30.34F  
ROSWELL SUNNY 60 28 29 S13G21 30.28F  
RUIDOSO SUNNY 57 23 26 NW17G25 30.37F  
SANTA FE SUNNY 59 26 28 NW13G18 30.34F  
TRUTH OR CONSE SUNNY 63 24 22 S8 30.32F  
TUCUMCARI CLOUDY 62 29 28 SW8 30.23F  

 
 
 
CLICK HERE TO GO TO PREVIOUS BULLETINS.

The Nexlab TX Page
The Nexlab NM Page Main Text Page